This is the latest recevied weather packets stored in our database for station/object N4QD-13. If no packets are shown the sender has not sent any weather packets the latest 10 day(s).
| Time | Temp. | Humidity | Pressure | Rain* | Wind** | Luminosity | Snow |
|---|---|---|---|---|---|---|---|
| 1777812004 | 7.78° C | 57% | 1019.3 hPa | 0 mm | - | 320 W/m² | - |
| 1777811703 | 7.78° C | 58% | 1019.3 hPa | 0 mm | - | 307 W/m² | - |
| 1777811397 | 7.78° C | 59% | 1019.5 hPa | 0 mm | - | 284 W/m² | - |
| 1777811095 | 7.22° C | 59% | 1019.1 hPa | 0 mm | - | 268 W/m² | - |
| 1777810792 | 7.78° C | 59% | 1019.1 hPa | 0 mm | - | 257 W/m² | - |
| 1777810489 | 7.22° C | 60% | 1018.9 hPa | 0 mm | - | 232 W/m² | - |
| 1777810185 | 7.22° C | 61% | 1019 hPa | 0 mm | - | 215 W/m² | - |
| 1777809882 | 6.67° C | 63% | 1019.1 hPa | 0 mm | - | 209 W/m² | - |
| 1777809580 | 6.67° C | 63% | 1019.1 hPa | 0 mm | - | 189 W/m² | - |
| 1777809277 | 6.67° C | 65% | 1019.1 hPa | 0 mm | - | 173 W/m² | - |
| 1777808975 | 6.11° C | 63% | 1019.1 hPa | 0 mm | - | 161 W/m² | - |
| 1777808672 | 6.11° C | 67% | 1019 hPa | 0 mm | - | 98 W/m² | - |
| 1777808368 | 5.56° C | 65% | 1018.8 hPa | 0 mm | - | 49 W/m² | - |
| 1777808067 | 5.56° C | 65% | 1018.7 hPa | 0 mm | - | 42 W/m² | - |
| 1777807764 | 5.56° C | 69% | 1019 hPa | 0 mm | - | 39 W/m² | - |
| 1777807462 | 5.56° C | 69% | 1018.7 hPa | 0 mm | - | 38 W/m² | - |
| 1777807163 | 5.56° C | 69% | 1019 hPa | 0 mm | - | 35 W/m² | - |
| 1777806861 | 5.56° C | 69% | 1018.8 hPa | 0 mm | - | 34 W/m² | - |
| 1777806557 | 5° C | 70% | 1018.4 hPa | 0 mm | - | 31 W/m² | - |
| 1777806253 | 5° C | 70% | 1018.7 hPa | 0 mm | - | 29 W/m² | - |
| 1777805949 | 5° C | 71% | 1018.4 hPa | 0 mm | - | 26 W/m² | - |
| 1777805646 | 5° C | 71% | 1018.5 hPa | 0 mm | - | 24 W/m² | - |
| 1777805344 | 5° C | 71% | 1018.2 hPa | 0 mm | - | 22 W/m² | - |
| 1777805042 | 5° C | 71% | 1018.1 hPa | 0 mm | - | 19 W/m² | - |
| 1777804739 | 5° C | 71% | 1017.8 hPa | 0 mm | - | 15 W/m² | - |
* Rain latest hour (hover to see other rain measurements)
** Current wind speed in m/s (hover to see current wind gust speed)